Regional Weather Roundup
Issued by NWS

Home | Current Version | Previous Version | Text Only | Print | Product List | Glossary Off
Versions: 1 2 3 4 5 6 7 8 9 10 11 12 13 14 15 16 17 18 19 20 21 22 23 24 25 26 27 28 29 30 31 32 33 34 35 36 37 38 39 40 41 42 43 44 45 46 47 48 49 50

000
ASUS43 KIND 312359
RWRIN

WEATHER ROUNDUP FOR INDIANA
NATIONAL WEATHER SERVICE INDIANAPOLIS IN
800 PM EDT SUN AUG 31 2014

NOTE: "FAIR" INDICATES FEW OR NO CLOUDS BELOW 12,000 FEET WITH NO
SIGNIFICANT WEATHER AND/OR OBSTRUCTIONS TO VISIBILITY.

* - STATION DOES NOT REPORT WEATHER SUCH AS PRECIPITATION OR FOG.

+ - STATION NOT QUALITY CONTROLLED BY THE NATIONAL WEATHER SERVICE.
    USE DATA WITH CAUTION...ESPECIALLY DEWPOINT AND RELATIVE
    HUMIDITY OBSERVATIONS.

INZ001>003-010>013-019-020-010100-
NORTHWEST INDIANA

CITY           SKY/WX    TMP DP  RH WIND       PRES   REMARKS
GARY /AIRPORT/ PTCLDY    82  68  61 S9        29.91S
KNOX *+        CLEAR     78  69  73 CALM      29.92S
MONTICELLO +   CLEAR     79  72  80 CALM      29.92F
VALPARAISO     CLEAR     80  68  66 SW6       29.93S
6HR MIN TEMP:  79; 6HR MAX TEMP:  84;


$$

LMZ046-743>745-010100-
SOUTHERN LAKE MICHIGAN

STATION/POSITION TIME  TEMP WIND        PRES
                       AIR  DIR/SP/G
                 (UTC) (F)  (DEG/KT/KT) (MB)
MICHIGAN CITY    2300   81  190/  8/  9   N/A

$$

INZ004-005-014>016-021>024-010100-
NORTH CENTRAL INDIANA

CITY           SKY/WX    TMP DP  RH WIND       PRES   REMARKS
GOSHEN         CLEAR     80  69  69 SW5       29.93S
6HR MIN TEMP:  80; 6HR MAX TEMP:  85;

SOUTH BEND     CLEAR     80  68  66 SW5       29.93S
6HR MIN TEMP:  80; 6HR MAX TEMP:  85;


$$

INZ006>009-017-018-025>027-010100-
NORTHEAST INDIANA

CITY           SKY/WX    TMP DP  RH WIND       PRES   REMARKS
ANGOLA *+      CLEAR     79  73  83 CALM      29.95R
FORT WAYNE     PTCLDY    75  70  84 S5        29.95F
6HR MIN TEMP:  75; 6HR MAX TEMP:  82; 6HR PCP: TRACE;


$$

INZ028-029-035-036-043>045-051>053-010100-
WEST CENTRAL INDIANA

CITY           SKY/WX    TMP DP  RH WIND       PRES   REMARKS
GREENCASTLE +  CLEAR     77  70  78 CALM      29.97R
LAFAYETTE      CLEAR     79  71  76 S3        29.93S
6HR MIN TEMP:  79; 6HR MAX TEMP:  83;

TERRE HAUTE    CLEAR     79  70  74 S6        29.95S
6HR MIN TEMP:  79; 6HR MAX TEMP:  84;


$$

INZ030>032-037>040-046>048-054>057-064-065-010100-
CENTRAL INDIANA

CITY           SKY/WX    TMP DP  RH WIND       PRES   REMARKS
FRANKFORT +    CLEAR     78  72  81 CALM      29.97R
INDIANAPOLIS   PTCLDY    78  70  76 S9        29.96R
6HR MIN TEMP:  76; 6HR MAX TEMP:  83; 6HR PCP: TRACE;

-EAGLE CREEK   PTCLDY    79  68  69 VRB6      29.96R
6HR MIN TEMP:  79; 6HR MAX TEMP:  82;

KOKOMO *+      PTCLDY    81  70  69 SW8       29.95R
MT COMFORT *+  PTCLDY    75  75 100 S5        29.97S
SHELBYVILLE    CLEAR     78  70  76 S6        29.97R
6HR MIN TEMP:  78; 6HR MAX TEMP:  82;


$$

INZ033-034-041-042-049-050-058-059-010100-
EAST CENTRAL INDIANA

CITY           SKY/WX    TMP DP  RH WIND       PRES   REMARKS
MUNCIE         CLEAR     78  69  73 S7        29.96S
6HR MIN TEMP:  78; 6HR MAX TEMP:  82;


$$

INZ060-061-067>069-081>083-085>088-010100-
SOUTHWEST INDIANA

CITY           SKY/WX    TMP DP  RH WIND       PRES   REMARKS
EVANSVILLE     CLEAR     81  71  71 S5        29.96S
6HR MIN TEMP:  76; 6HR MAX TEMP:  83;


$$

INZ062-063-066-070>080-084-089>092-010100-
SOUTH CENTRAL AND SOUTHEAST INDIANA

CITY           SKY/WX    TMP DP  RH WIND       PRES   REMARKS
BLOOMINGTON    CLEAR     76  70  82 S5        29.97R
6HR MIN TEMP:  76; 6HR MAX TEMP:  82; 6HR PCP: TRACE;


$$



USA.gov is the U.S. government's official web portal to all federal, state and local government web resources and services.